Dubuque, IA

11:00 AM CDT on March 28, 2017 (GMT -0500)
Dubuque Regional

Weather History for KDBQ - October, 2013

Change the Weather History Date:

Friday, October 4, 2013

  Actual Average Record
Temperature  
Mean Temperature 67 °F 54 °F  
Max Temperature 71 °F 65 °F 88 °F (1897)
Min Temperature 63 °F 44 °F 25 °F (1989)
Degree Days  
Heating Degree Days 0 11  
Month to date heating degree days 1 42  
Since 1 July heating degree days 139 220  
Cooling Degree Days 2 1  
Month to date cooling degree days 8 4  
Year to date cooling degree days 640 641  
Growing Degree Days 16 (Base 50)    
Moisture  
Dew Point 65 °F    
Average Humidity 94    
Maximum Humidity 100    
Minimum Humidity 87    
Precipitation  
Precipitation 0.87 in 0.10 in 3.37 in (1919)
Month to date precipitation 1.05 0.38  
Year to date precipitation 34.11 29.82  
Snow  
Snow 0.00 in 0.00 in - ()
Month to date snowfall 0.0 0.0  
Since 1 July snowfall 0.0 0.0  
Since 1 September snowfall 0.0 0.0  
Snow Depth 0.00 in    
Sea Level Pressure  
Sea Level Pressure 29.91 in    
Wind  
Wind Speed 9 mph (SSE)    
Max Wind Speed 32 mph    
Max Gust Speed 54 mph    
Visibility 7 miles    
Events Rain , Thunderstorm    
T = Trace of Precipitation, MM = Missing Value Source: NWS Daily Summary

Daily Weather History Graph

Daily Weather History Graph

Search for Another Location

Airport or City:

Trip Planner

Search our weather history database for the weather conditions in past years. The results will help you decide how hot, cold, wet, or windy it might be!

Date:

Astronomy

Oct. 04, 2013 Rise Set
Actual Time 7:03 AM CDT 6:38 PM CDT
Civil Twilight 6:35 AM CDT 7:06 PM CDT
Nautical Twilight 6:02 AM CDT 7:39 PM CDT
Astronomical Twilight 5:30 AM CDT 8:11 PM CDT
Moon 6:39 AM CDT (10/4) 6:20 PM CDT (10/4)
Length of Visible Light 12h 31m
Length of Day
11h 35m
Waning Crescent, 0% of the Moon is Illuminated
Oct 4
Waning Crescent
Oct 4
New
Oct 11
First Quarter
Oct 18
Full
Oct 26
Last Quarter

Hourly Weather History & Observations

Time (CDT) Temp. Dew Point Humidity Pressure Visibility Wind Dir Wind Speed Gust Speed Precip Events Conditions
12:41 AM 66.2 °F 66.2 °F 100% 29.87 in 10.0 mi SSW 8.1 mph - N/A Thunderstorm Thunderstorm
12:53 AM 66.0 °F 66.0 °F 100% 29.86 in 9.0 mi SSW 9.2 mph - N/A Thunderstorm Thunderstorm
1:12 AM 66.2 °F 64.4 °F 94% 29.85 in 1.2 mi South 28.8 mph 54.1 mph 0.05 in Rain , Thunderstorm Heavy Thunderstorms and Rain
1:24 AM 64.4 °F 64.4 °F 100% 29.87 in 3.0 mi South 9.2 mph 26.5 mph 0.41 in Rain , Thunderstorm Light Thunderstorms and Rain
1:53 AM 64.9 °F 64.9 °F 100% 29.86 in 10.0 mi SSE 12.7 mph - 0.41 in Thunderstorm Mostly Cloudy
2:07 AM 64.4 °F 64.4 °F 100% 29.87 in 10.0 mi South 12.7 mph - N/A   Mostly Cloudy
2:53 AM 64.0 °F 64.0 °F 100% 29.86 in 10.0 mi South 6.9 mph - N/A   Partly Cloudy
3:53 AM 64.9 °F 64.0 °F 97% 29.88 in 10.0 mi SSE 10.4 mph - N/A   Mostly Cloudy
4:24 AM 64.4 °F 64.4 °F 100% 29.91 in 8.0 mi WSW 3.5 mph - 0.01 in Thunderstorm Overcast
4:53 AM 64.0 °F 64.0 °F 100% 29.93 in 6.0 mi SSW 12.7 mph 17.3 mph 0.02 in Rain , Thunderstorm Light Rain
5:53 AM 64.0 °F 64.0 °F 100% 29.91 in 10.0 mi Calm Calm - 0.03 in   Mostly Cloudy
6:53 AM 63.0 °F 63.0 °F 100% 29.95 in 5.0 mi NW 9.2 mph - 0.06 in Rain Rain
7:20 AM 62.6 °F 62.6 °F 100% 29.90 in 7.0 mi NE 6.9 mph - 0.07 in Rain Light Rain
7:53 AM 64.0 °F 63.0 °F 96% 29.90 in 10.0 mi SE 5.8 mph - 0.07 in   Partly Cloudy
8:53 AM 64.0 °F 64.0 °F 100% 29.90 in 10.0 mi Variable 6.9 mph - N/A   Clear
9:53 AM 64.0 °F 63.0 °F 96% 29.91 in 10.0 mi SSW 4.6 mph - N/A   Partly Cloudy
10:33 AM 64.4 °F 62.6 °F 94% 29.95 in 7.0 mi Variable 5.8 mph - 0.00 in Rain , Thunderstorm Light Thunderstorms and Rain
10:53 AM 64.0 °F 64.0 °F 100% 29.97 in 5.0 mi Calm Calm - 0.03 in Rain , Thunderstorm Light Rain
11:11 AM 64.4 °F 64.4 °F 100% 29.97 in 2.0 mi North 8.1 mph - 0.04 in Rain , Thunderstorm Heavy Thunderstorms and Rain
11:42 AM 64.4 °F 64.4 °F 100% 30.01 in 2.0 mi SW 6.9 mph - 0.15 in Rain , Thunderstorm Thunderstorms and Rain
11:53 AM 64.0 °F 64.0 °F 100% 30.00 in 2.0 mi SSW 6.9 mph - 0.20 in Rain , Thunderstorm Thunderstorms and Rain
11:58 AM 64.4 °F 64.4 °F 100% 30.00 in 2.5 mi South 6.9 mph - 0.01 in Rain Rain
12:14 PM 64.4 °F 64.4 °F 100% 29.99 in 4.0 mi SE 11.5 mph - 0.04 in Rain Rain
12:53 PM 68.0 °F 64.9 °F 90% 29.97 in 10.0 mi South 9.2 mph - 0.05 in   Mostly Cloudy
1:53 PM 66.9 °F 64.0 °F 90% 29.89 in 10.0 mi SSE 16.1 mph - 0.00 in   Scattered Clouds
2:53 PM 68.0 °F 64.0 °F 87% 29.86 in 10.0 mi SSE 16.1 mph - N/A   Partly Cloudy
3:53 PM 68.0 °F 66.0 °F 93% 29.90 in 10.0 mi South 8.1 mph - 0.00 in   Scattered Clouds
4:53 PM 68.0 °F 64.9 °F 90% 29.86 in 10.0 mi SE 11.5 mph 28.8 mph 0.00 in   Scattered Clouds
5:53 PM 71.1 °F 68.0 °F 90% 29.88 in 10.0 mi SE 12.7 mph - N/A   Scattered Clouds
6:53 PM 69.1 °F 68.0 °F 96% 29.89 in 8.0 mi East 6.9 mph - N/A   Mostly Cloudy
7:53 PM 69.1 °F 68.0 °F 96% 29.89 in 8.0 mi East 9.2 mph - N/A   Clear
9:53 PM 69.1 °F 68.0 °F 96% 29.88 in 7.0 mi SE 11.5 mph - N/A   Clear
10:53 PM 69.1 °F 68.0 °F 96% 29.88 in 6.0 mi SE 12.7 mph - N/A   Clear
11:53 PM 68.0 °F 68.0 °F 100% 29.87 in 6.0 mi SE 12.7 mph - N/A   Clear